Weather Roundup
Issued by NWS Corpus Christi, TX

Home | Current Version | Previous Version | Text Only | Print | Product List | Glossary On
Versions: 1 2 3 4 5 6 7 8 9 10 11 12 13 14 15 16 17 18 19 20 21 22 23 24 25 26 27 28 29 30 31 32 33 34 35 36 37 38 39 40 41 42 43 44 45 46 47 48 49 50
000
ASUS44 KCRP 201710
HRRCRP

SOUTH TEXAS REGIONAL WEATHER ROUNDUP
NATIONAL WEATHER SERVICE CORPUS CHRISTI TX
1100 AM CST SAT DEC 20 2014


TXZ229>244-201800-
...CORPUS CHRISTI AREA OBSERVATIONS...

CITY           SKY/WX    TMP DP  RH WIND       PRES   REMARKS
CORPUS CHRISTI CLOUDY    55  49  80 N10       30.21F
NAS CORPUS CHR CLOUDY    54  52  93 MISG      30.21S
ROCKPORT       CLOUDY    54  49  83 N12       30.21S
KINGSVILLE NAS CLOUDY    54  51  90 N9        30.23S
ALICE          CLOUDY    54  48  80 NE8       30.22S
FALFURRIAS     CLOUDY    52  49  89 NE6       30.23S
$$

...VICTORIA AREA OBSERVATIONS...

CITY           SKY/WX    TMP DP  RH WIND       PRES   REMARKS
VICTORIA       CLOUDY    54  48  80 N12       30.22F
BEEVILLE       CLOUDY    53  49  88 N8        30.22R
PLEASANTON     CLOUDY    54  45  71 N10G16    30.23F
SAN ANTONIO    CLOUDY    52  43  71 NE8       30.24F
$$

...LAREDO AREA OBSERVATIONS...

CITY           SKY/WX    TMP DP  RH WIND       PRES   REMARKS
LAREDO         CLOUDY    52  46  82 NE7       30.26S
COTULLA        CLOUDY    53  45  74 E8        30.24S
DEL RIO        CLOUDY    52  45  77 SE9       30.21S
MCALLEN        CLOUDY    57  54  89 N9        30.22F FOG
HEBBRONVILLE   CLOUDY    50  47  87 N5        30.24R FOG
$$

...OTHER TEXAS OBSERVATIONS...

CITY           SKY/WX    TMP DP  RH WIND       PRES   REMARKS
BROWNSVILLE    CLOUDY    59  54  83 N13       30.19S
HOUSTON        CLOUDY    53  49  86 N7        30.22S
COL. STATION   CLOUDY    51  48  89 N9        30.24S
AUSTIN         CLOUDY    51  46  83 N6        30.25R
WACO           CLOUDY    49  44  83 N7        30.26S
FORT WORTH     DRIZZLE   45  42  89 NE7       30.26S FOG
WICHITA FALLS  CLOUDY    44  41  89 S8        30.24F
LUBBOCK        CLOUDY    40  36  86 SW12      30.15F WCI  33
EL PASO        PTSUNNY   44  27  51 CALM      30.17S
$$

...MARINE OBSERVATIONS...

STATION/POSITION TIME  SKY/WX   TEMP    WIND        PRES    VSBY  WAVE   SWELL
                                AIR SEA DIR/SP/G                  HT/PER HT/PER
                 (UTC)          (F)     (DEG/KT/KT) (MB)    (MI)  (FT/S) (FT/S)
PORT ARANSAS     1700            53 63  360/ 12/ 14 1022.9F
BUOY 90 E PORT A 1700            60 72   20/ 17/ 21 1021.3S         6/ 7
BUOY 45 SE BAFFI 1700            62 73  360/ 19/ 21 1021.0R         6/ 7   2/11
BUOY 200 E PT IS 1700            70 73   10/ 17/ 21 1018.0R         6/ 7   2/16
BUOY 15 E GALVES 1700            54 64   30/ 14/ 17 1021.7R         3/ 6
$$



USA.gov is the U.S. government's official web portal to all federal, state and local government web resources and services.